When you browse on this site, cookies collect data to enhance your experience and personalize the content and advertising you see.
Visit our Privacy Policy to learn more. By continuing to use the site, you agree to this use of cookies and data.
  • Em Portugal
  • Lista de países
  • Para 7 dias
  • Temperatura da água
  • Mapa do tempo
  • Widgets de tempo
  • user-avatar
    Iniciar Sessão

    Previsão horária em Smolino

    Hoje, 4 Junho, Quinta-feira

    Tempo Temperatura Precipitação Vento Pressão Humidade
    00:00 +12°C° 1.6 mm 3 m/s 740 mmHg 98%
    01:00 +12°C° 1.6 mm 3 m/s 739 mmHg 98%
    02:00 +12°C° 0 mm 3 m/s 738 mmHg 99%
    03:00 +12°C° 2.5 mm 3 m/s 737 mmHg 99%
    04:00 +13°C° 2.5 mm 2 m/s 737 mmHg 99%
    05:00 +13°C° 2.5 mm 2 m/s 736 mmHg 99%
    06:00 +13°C° 0.7 mm 2 m/s 736 mmHg 98%
    07:00 +13°C° 0.7 mm 2 m/s 736 mmHg 98%
    08:00 +14°C° 0 mm 2 m/s 735 mmHg 98%
    09:00 +13°C° 0.1 mm 3 m/s 736 mmHg 95%
    10:00 +14°C° 0.1 mm 3 m/s 736 mmHg 93%
    11:00 +14°C° 0.1 mm 4 m/s 736 mmHg 90%
    12:00 +17°C° 0.2 mm 3 m/s 736 mmHg 83%
    13:00 +18°C° 0.2 mm 3 m/s 736 mmHg 77%
    14:00 +19°C° 0.2 mm 3 m/s 737 mmHg 70%
    15:00 +19°C° 0.3 mm 3 m/s 737 mmHg 72%
    16:00 +19°C° 0.3 mm 3 m/s 737 mmHg 75%
    17:00 +19°C° 0.3 mm 2 m/s 737 mmHg 77%
    18:00 +17°C° 0.2 mm 2 m/s 737 mmHg 82%
    19:00 +16°C° 0.2 mm 2 m/s 737 mmHg 86%
    20:00 +14°C° 0.2 mm 2 m/s 737 mmHg 91%
    21:00 +14°C° 0.4 mm 2 m/s 737 mmHg 92%
    22:00 +13°C° 0.4 mm 2 m/s 738 mmHg 93%
    23:00 +12°C° 0.4 mm 2 m/s 738 mmHg 94%

    Amanhã, 5 Junho, Sexta-feira

    Tempo Temperatura Precipitação Vento Pressão Humidade
    00:00 +10°C° 0 mm 2 m/s 738 mmHg 95%
    01:00 +10°C° 0 mm 2 m/s 739 mmHg 96%
    02:00 +9°C° 0 mm 3 m/s 739 mmHg 97%
    03:00 +10°C° 0 mm 3 m/s 739 mmHg 96%
    04:00 +10°C° 0 mm 3 m/s 739 mmHg 95%
    05:00 +10°C° 0 mm 3 m/s 740 mmHg 94%
    06:00 +12°C° 0 mm 3 m/s 740 mmHg 88%
    07:00 +14°C° 0 mm 3 m/s 740 mmHg 82%
    08:00 +15°C° 0 mm 4 m/s 741 mmHg 76%
    09:00 +17°C° 0.6 mm 4 m/s 741 mmHg 75%
    10:00 +18°C° 0.6 mm 4 m/s 741 mmHg 75%
    11:00 +18°C° 0.6 mm 4 m/s 741 mmHg 74%
    12:00 +18°C° 0.8 mm 4 m/s 741 mmHg 74%
    13:00 +18°C° 0.8 mm 4 m/s 741 mmHg 75%
    14:00 +18°C° 0.8 mm 4 m/s 741 mmHg 76%
    15:00 +18°C° 0.7 mm 4 m/s 741 mmHg 79%
    16:00 +17°C° 0.7 mm 3 m/s 741 mmHg 83%
    17:00 +16°C° 0.7 mm 3 m/s 741 mmHg 86%
    18:00 +14°C° 0 mm 3 m/s 741 mmHg 89%
    19:00 +14°C° 0 mm 2 m/s 741 mmHg 92%
    20:00 +12°C° 0 mm 2 m/s 741 mmHg 95%
    21:00 +12°C° 0 mm 2 m/s 741 mmHg 96%
    22:00 +10°C° 0 mm 2 m/s 741 mmHg 97%
    23:00 +10°C° 0 mm 2 m/s 742 mmHg 98%

    Depois de amanhã, 6 Junho, Sábado

    Tempo Temperatura Precipitação Vento Pressão Humidade
    00:00 +9°C° 0 mm 2 m/s 742 mmHg 98%
    01:00 +9°C° 0 mm 2 m/s 742 mmHg 98%
    02:00 +9°C° 0 mm 2 m/s 742 mmHg 98%
    03:00 +9°C° 0 mm 2 m/s 742 mmHg 97%
    04:00 +10°C° 0 mm 2 m/s 743 mmHg 97%
    05:00 +12°C° 0 mm 2 m/s 743 mmHg 96%
    06:00 +14°C° 0 mm 2 m/s 743 mmHg 91%
    07:00 +15°C° 0 mm 2 m/s 743 mmHg 85%
    08:00 +17°C° 0 mm 3 m/s 743 mmHg 79%
    09:00 +19°C° 0 mm 3 m/s 743 mmHg 73%
    10:00 +21°C° 0 mm 3 m/s 744 mmHg 68%
    11:00 +22°C° 0 mm 4 m/s 744 mmHg 62%
    12:00 +22°C° 0.4 mm 4 m/s 744 mmHg 66%
    13:00 +23°C° 0.4 mm 4 m/s 743 mmHg 70%
    14:00 +23°C° 0.4 mm 4 m/s 743 mmHg 73%
    15:00 +22°C° 0.6 mm 4 m/s 743 mmHg 77%
    16:00 +22°C° 0.6 mm 3 m/s 743 mmHg 81%
    17:00 +22°C° 0.6 mm 3 m/s 743 mmHg 85%
    18:00 +21°C° 0.5 mm 3 m/s 743 mmHg 88%
    19:00 +20°C° 0.5 mm 3 m/s 744 mmHg 90%
    20:00 +19°C° 0.5 mm 3 m/s 744 mmHg 92%
    21:00 +18°C° 0.1 mm 3 m/s 744 mmHg 94%
    22:00 +18°C° 0.1 mm 2 m/s 744 mmHg 95%
    23:00 +17°C° 0.1 mm 2 m/s 745 mmHg 96%

    7 Junho, Domingo

    Tempo Temperatura Precipitação Vento Pressão Humidade
    00:00 +16°C° 0 mm 2 m/s 745 mmHg 96%
    01:00 +16°C° 0 mm 2 m/s 746 mmHg 97%
    02:00 +16°C° 0 mm 2 m/s 746 mmHg 97%
    03:00 +16°C° 0 mm 1 m/s 746 mmHg 96%
    04:00 +16°C° 0 mm 1 m/s 747 mmHg 95%
    05:00 +18°C° 0 mm 1 m/s 747 mmHg 95%
    06:00 +20°C° 0 mm 1 m/s 748 mmHg 88%
    07:00 +22°C° 0 mm 1 m/s 748 mmHg 81%
    08:00 +21°C° 0 mm 0 m/s 749 mmHg 75%
    09:00 +23°C° 0 mm 0 m/s 749 mmHg 68%
    10:00 +24°C° 0 mm 0 m/s 749 mmHg 61%
    11:00 +26°C° 0 mm 0 m/s 749 mmHg 54%
    12:00 +26°C° 0 mm 0 m/s 749 mmHg 53%
    13:00 +26°C° 0 mm 0 m/s 749 mmHg 51%
    14:00 +26°C° 0 mm 0 m/s 749 mmHg 50%
    15:00 +28°C° 0 mm 1 m/s 749 mmHg 53%
    16:00 +27°C° 0 mm 1 m/s 749 mmHg 57%
    17:00 +27°C° 0 mm 1 m/s 749 mmHg 61%
    18:00 +25°C° 0.1 mm 2 m/s 749 mmHg 69%
    19:00 +23°C° 0.1 mm 2 m/s 749 mmHg 77%
    20:00 +20°C° 0.1 mm 2 m/s 749 mmHg 86%
    21:00 +20°C° 0 mm 2 m/s 749 mmHg 88%
    22:00 +19°C° 0 mm 2 m/s 749 mmHg 91%
    23:00 +18°C° 0 mm 2 m/s 749 mmHg 93%

    8 Junho, Segunda-feira

    Tempo Temperatura Precipitação Vento Pressão Humidade
    00:00 +18°C° 0 mm 2 m/s 749 mmHg 94%
    01:00 +18°C° 0 mm 2 m/s 749 mmHg 95%
    02:00 +18°C° 0 mm 1 m/s 749 mmHg 95%
    03:00 +19°C° 0 mm 1 m/s 749 mmHg 94%
    04:00 +19°C° 0 mm 1 m/s 749 mmHg 92%
    05:00 +20°C° 0 mm 1 m/s 750 mmHg 90%
    06:00 +22°C° 0 mm 1 m/s 750 mmHg 84%
    07:00 +23°C° 0 mm 1 m/s 750 mmHg 78%
    08:00 +25°C° 0 mm 2 m/s 750 mmHg 71%
    09:00 +26°C° 0.1 mm 2 m/s 750 mmHg 67%
    10:00 +27°C° 0.1 mm 2 m/s 750 mmHg 63%
    11:00 +28°C° 0.1 mm 2 m/s 750 mmHg 58%
    12:00 +28°C° 0.4 mm 2 m/s 750 mmHg 58%
    13:00 +29°C° 0.4 mm 2 m/s 750 mmHg 57%
    14:00 +29°C° 0.4 mm 2 m/s 749 mmHg 56%
    15:00 +28°C° 0 mm 2 m/s 749 mmHg 59%
    16:00 +28°C° 0 mm 2 m/s 749 mmHg 62%
    17:00 +28°C° 0 mm 2 m/s 749 mmHg 64%
    18:00 +26°C° 0 mm 1 m/s 749 mmHg 71%
    19:00 +24°C° 0 mm 1 m/s 749 mmHg 77%
    20:00 +22°C° 0 mm 1 m/s 749 mmHg 84%
    21:00 +22°C° 0 mm 1 m/s 749 mmHg 86%
    22:00 +19°C° 0 mm 0 m/s 749 mmHg 88%
    23:00 +18°C° 0 mm 0 m/s 749 mmHg 90%

    9 Junho, Terça-feira

    Tempo Temperatura Precipitação Vento Pressão Humidade
    00:00 +18°C° 0 mm 0 m/s 749 mmHg 91%
    01:00 +19°C° 0 mm 1 m/s 750 mmHg 91%
    02:00 +19°C° 0 mm 1 m/s 750 mmHg 92%
    03:00 +18°C° 0 mm 0 m/s 750 mmHg 90%
    04:00 +18°C° 0 mm 0 m/s 750 mmHg 87%
    05:00 +19°C° 0 mm 0 m/s 750 mmHg 85%
    06:00 +21°C° 0 mm 0 m/s 750 mmHg 79%
    07:00 +23°C° 0 mm 0 m/s 750 mmHg 72%
    08:00 +25°C° 0 mm 0 m/s 750 mmHg 66%
    09:00 +26°C° 0 mm 0 m/s 750 mmHg 60%
    10:00 +27°C° 0 mm 0 m/s 751 mmHg 55%
    11:00 +29°C° 0 mm 0 m/s 751 mmHg 50%
    12:00 +29°C° 0 mm 0 m/s 750 mmHg 48%
    13:00 +29°C° 0 mm 0 m/s 750 mmHg 46%
    14:00 +29°C° 0 mm 0 m/s 750 mmHg 44%
    15:00 +31°C° 0 mm 1 m/s 750 mmHg 48%
    16:00 +30°C° 0 mm 1 m/s 750 mmHg 52%
    17:00 +30°C° 0 mm 1 m/s 750 mmHg 56%
    18:00 +28°C° 0 mm 1 m/s 750 mmHg 65%
    19:00 +25°C° 0 mm 1 m/s 750 mmHg 73%
    20:00 +23°C° 0 mm 1 m/s 749 mmHg 82%
    21:00 +23°C° 0 mm 1 m/s 750 mmHg 84%
    22:00 +22°C° 0 mm 1 m/s 750 mmHg 87%
    23:00 +19°C° 0 mm 0 m/s 750 mmHg 90%
    Mostrar mais